Location: Cañada de la Miga
(34.7595°N, 106.2317°W)
Time: 03:20:42
(UTC+00:00)

Envisat - Visible Passes

Search period start: 21 October 2021 00:00
Search period end: 31 October 2021 00:00
Orbit: 764 x 766 km, 98.2° (Epoch: 20 October)

Date Brightness Start Highest point End Pass type
(mag) Time Alt. Az. Time Alt. Az. Time Alt. Az.
21 Oct 6.3 00:45:04 10° SW 00:47:44 14° W 00:50:26 10° WNW visible
21 Oct 5.3 11:16:28 10° NE 11:20:33 24° E 11:24:38 10° SSE visible
22 Oct 2.9 12:17:47 10° N 12:22:52 77° WNW 12:27:55 10° SSW visible
23 Oct 4.2 11:41:09 10° NNE 11:46:00 44° E 11:50:50 10° S visible
24 Oct 5.7 11:05:26 10° NE 11:08:57 19° E 11:12:27 10° SE visible
24 Oct 3.4 12:43:20 10° N 12:48:06 41° WNW 12:52:49 10° SW visible
25 Oct 3.1 12:06:15 10° NNE 12:11:21 83° ESE 12:16:25 10° S visible
26 Oct 4.7 11:29:50 10° NNE 11:34:26 34° E 11:39:01 10° SSE visible
27 Oct 6.0 10:54:39 10° ENE 10:57:20 14° E 10:59:59 10° SE visible
27 Oct 3.1 12:31:40 10° N 12:36:37 54° WNW 12:41:32 10° SSW visible
28 Oct 3.5 11:54:46 10° NNE 11:59:49 63° ESE 12:04:50 10° S visible
29 Oct 6.4 00:47:43 10° WSW 00:50:02 13° W 00:52:21 10° WNW visible
29 Oct 5.1 11:18:37 10° NE 11:22:51 26° E 11:27:03 10° SSE visible
29 Oct 3.8 12:57:24 10° N 13:01:47 30° WNW 13:06:08 10° SW visible
30 Oct 6.2 10:44:45 10° E 10:45:41 10° E 10:46:37 10° ESE visible
30 Oct 2.9 12:20:03 10° N 12:25:07 71° WNW 12:30:09 10° SSW visible
